[TLELIST] Archives

 

[TLELIST] Current TLEs

April 16th 2026 PDT

0 HST 1 20580U 90037B 26106.19306363 .00003779 00000-0 11863-3 0 9998 2 20580 28.4727 144.0470 0002169 170.6589 189.4047 15.30057090779063 0 ISS (ZARYA) 1 25544U 98067A 26105.87667374 .00005471 00000-0 10765-3 0 9991 2 25544 51.6326 248.4785 0006599 317.1782 42.8691 15.48928061562097 0 CXO 1 25867U 99040B 26108.55302551 .00000845 00000-0 00000-0 0 9990 2 25867 55.2416 118.3602 7940395 310.5754 0.2310 0.37809990 17094 ...Continue Reading

[TLELIST] Current TLEs

April 15th 2026 PDT

0 HST 1 20580U 90037B 26105.21468105 .00003558 00000-0 11128-3 0 9992 2 20580 28.4728 150.7274 0002222 160.8426 199.2254 15.30050291778919 0 ISS (ZARYA) 1 25544U 98067A 26105.23148970 .00005508 00000-0 10834-3 0 9995 2 25544 51.6321 251.6702 0006571 314.4960 45.5491 15.48920688561998 0 CXO 1 25867U 99040B 26105.90737653 .00000932 00000-0 00000-0 0 9998 2 25867 55.1609 118.4976 7943121 310.5395 0.1381 0.37807016 17086 ...Continue Reading

[TLELIST] Current TLEs

April 14th 2026 PDT

0 HST 1 20580U 90037B 26104.23629456 .00003908 00000-0 12299-3 0 9990 2 20580 28.4729 157.4075 0002271 151.2476 208.8245 15.30044126778766 0 ISS (ZARYA) 1 25544U 98067A 26104.13467087 .00005375 00000-0 10597-3 0 9994 2 25544 51.6322 257.0967 0006556 310.1862 49.8552 15.48905907561823 0 CXO 1 25867U 99040B 26105.90737653 .00000932 00000-0 00000-0 0 9998 2 25867 55.1609 118.4976 7943121 310.5395 0.1381 0.37807016 17086 ...Continue Reading

[TLELIST] Current TLEs

April 14th 2026 PDT

0 HST 1 20580U 90037B 26104.23629456 .00003908 00000-0 12299-3 0 9990 2 20580 28.4729 157.4075 0002271 151.2476 208.8245 15.30044126778766 0 ISS (ZARYA) 1 25544U 98067A 26104.13467087 .00005375 00000-0 10597-3 0 9994 2 25544 51.6322 257.0967 0006556 310.1862 49.8552 15.48905907561823 0 CXO 1 25867U 99040B 26105.90737653 .00000932 00000-0 00000-0 0 9998 2 25867 55.1609 118.4976 7943121 310.5395 0.1381 0.37807016 17086 ...Continue Reading

[TLELIST] Current TLEs

April 13th 2026 PDT

0 HST 1 20580U 90037B 26103.25790392 .00004371 00000-0 13847-3 0 9994 2 20580 28.4728 164.0875 0002305 141.6301 218.4459 15.30037103778610 0 ISS (ZARYA) 1 25544U 98067A 26103.16688155 .00004867 00000-0 96801-4 0 9995 2 25544 51.6321 261.8843 0006463 306.5385 53.5008 15.48891757561672 0 CXO 1 25867U 99040B 26105.90737653 .00000932 00000-0 00000-0 0 9998 2 25867 55.1609 118.4976 7943121 310.5395 0.1381 0.37807016 17086 ...Continue Reading

[TLELIST] Current TLEs

April 12th 2026 PDT

0 HST 1 20580U 90037B 26102.27950855 .00004716 00000-0 15002-3 0 9995 2 20580 28.4728 170.7674 0002331 131.9445 228.1350 15.30028777778469 0 ISS (ZARYA) 1 25544U 98067A 26101.94100262 .00005402 00000-0 10657-3 0 9997 2 25544 51.6326 267.9482 0006452 301.5882 58.4476 15.48877690561480 0 CXO 1 25867U 99040B 26103.26452838 .00000981 00000-0 00000-0 0 9998 2 25867 55.0979 118.6093 7944075 310.5417 0.3347 0.37801723 17084 ...Continue Reading

[TLELIST] Current TLEs

April 11th 2026 PDT

0 HST 1 20580U 90037B 26101.30110753 .00005596 00000-0 17945-3 0 9998 2 20580 28.4727 177.4469 0002357 123.0694 237.0129 15.30019551778317 0 ISS (ZARYA) 1 25544U 98067A 26101.16675691 .00005918 00000-0 11600-3 0 9995 2 25544 51.6326 271.7779 0006465 298.5374 61.4964 15.48869271561366 0 CXO 1 25867U 99040B 26103.26452838 .00000981 00000-0 00000-0 0 9998 2 25867 55.0979 118.6093 7944075 310.5417 0.3347 0.37801723 17084 ...Continue Reading

[TLELIST] Current TLEs

April 11th 2026 PDT

0 HST 1 20580U 90037B 26101.30110753 .00005596 00000-0 17945-3 0 9998 2 20580 28.4727 177.4469 0002357 123.0694 237.0129 15.30019551778317 0 ISS (ZARYA) 1 25544U 98067A 26101.16675691 .00005918 00000-0 11600-3 0 9995 2 25544 51.6326 271.7779 0006465 298.5374 61.4964 15.48869271561366 0 CXO 1 25867U 99040B 26103.26452838 .00000981 00000-0 00000-0 0 9998 2 25867 55.0979 118.6093 7944075 310.5417 0.3347 0.37801723 17084 ...Continue Reading

[TLELIST] Current TLEs

April 10th 2026 PDT

0 HST 1 20580U 90037B 26100.25747253 .00007076 00000-0 22890-3 0 9992 2 20580 28.4726 184.5722 0002372 113.0837 247.0009 15.30009222778156 0 ISS (ZARYA) 1 25544U 98067A 26100.19894350 .00006976 00000-0 13529-3 0 9999 2 25544 51.6328 276.5654 0006432 294.6645 65.3674 15.48858067561211 0 CXO 1 25867U 99040B 26100.61868585 .00000949 00000-0 00000-0 0 9998 2 25867 55.0564 118.6849 7946439 310.5783 0.0837 0.37798618 17062 ...Continue Reading

[TLELIST] Current TLEs

April 9th 2026 PDT

0 HST 1 20580U 90037B 26099.27905669 .00006781 00000-0 21914-3 0 9996 2 20580 28.4725 191.2519 0002372 104.2360 255.8500 15.29996370778001 0 ISS (ZARYA) 1 25544U 98067A 26098.97303557 .00006802 00000-0 13221-3 0 9992 2 25544 51.6330 282.6294 0006365 289.6160 70.4141 15.48838774561021 0 CXO 1 25867U 99040B 26100.61868585 .00000949 00000-0 00000-0 0 9998 2 25867 55.0564 118.6849 7946439 310.5783 0.0837 0.37798618 17062 ...Continue Reading
  • This mailing list is a public mailing list - anyone may join or leave, at any time.
  • This mailing list is announce-only.

International Space Station (ISS) / Hubble Space Telescope (HST) / Chandra X-Ray Observatory Orbital Data via EMAIL

Privacy Policy:

Private list